This demonstration page uses our WeatherBlox Daily Observations layout. Learn more.

Left ArrowRight Arrow

41.86663, -103.66717

Hourly Observations for July 16, 2018

Temp ( °F °C ) Dew Point ( °F °C ) Humidity (%) Winds ( mph kmh ) Pressure ( in mb ) Visibility ( mi km ) Precip ( " mm )
12:53 am 00:53 Clear 61 16.1 61 16.1 100 100 E 5 7 30.1 1019 10 16.0934 N/A
1:53 am 01:53 Clear 61 16.1 61 16.1 100 100 SE 7 11 30.09 1019 10 16.0934 N/A
2:53 am 02:53 Clear 59 15 59 15 100 100 E 6 9 30.08 1019 9 14.48406 N/A
3:53 am 03:53 Clear 60 15.6 60 15.6 100 100 ESE 8 13 30.06 1018 10 16.0934 N/A
4:53 am 04:53 Clear 59 15 59 15 100 100 undefined N/A 30.07 1018 10 16.0934 N/A
5:53 am 05:53 Sunny with Mist and Fog 60 15.6 60 15.6 100 100 ESE 7 11 30.07 1018 5 8.0467 N/A
6:20 am 06:20 Partly Cloudy with Mist and Fog 61 16 61 16 100 100 ESE 9 15 30.03 1017 3 4.82802 N/A
6:53 am 06:53 Sunny with Mist and Fog 62 16.7 62 16.7 100 100 E 8 13 30.09 1019 4 6.43736 N/A
7:53 am 07:53 Sunny 67 19.4 66 18.9 97 97 ESE 9 15 30.09 1019 7 11.26538 N/A
8:04 am 08:04 Mostly Sunny 67 19.4 66 18.9 97 97 ESE 9 15 30.03 1017 8 12.87472 N/A
8:27 am 08:27 Mostly Cloudy 70 21 66 19 88 88 ESE 10 17 30 1016 9 14.48406 N/A
8:53 am 08:53 Mostly Cloudy 70 21.1 66 18.9 87 87 ESE 12 19 30.09 1019 9 14.48406 N/A
9:03 am 09:03 Mostly Cloudy 70 21.1 66 18.9 87 87 SE 12 19 30 1016 8 12.87472 N/A
9:34 am 09:34 Mostly Cloudy 72 22 66 19 83 83 SE 13 20 29.97 1015 10 16.0934 N/A
9:53 am 09:53 Mostly Cloudy 73 22.8 67 19.4 81 81 SE 12 19 30.07 1018 10 16.0934 N/A
10:07 am 10:07 Mostly Sunny 74 23.3 67 19.4 79 79 SE 9 15 29.94 1014 10 16.0934 N/A
10:53 am 10:53 Partly Cloudy 77 25 67 19.4 71 71 S 10 17 30.06 1018 10 16.0934 N/A
11:53 am 11:53 Sunny 82 27.8 68 20 63 63 S 7 11 30.04 1017 10 16.0934 N/A
12:53 pm 12:53 Sunny 84 28.9 68 20 59 59 S 6 9 30.02 1017 10 16.0934 N/A
1:53 pm 13:53 Sunny 89 31.7 67 19.4 48 48 SE 8 13 29.99 1016 10 16.0934 N/A
2:53 pm 14:53 Mostly Sunny 89 31.7 66 18.9 47 47 VRB 7 11 29.98 1015 10 16.0934 N/A
3:53 pm 15:53 Partly Cloudy 90 32.2 67 19.4 47 47 SSE 12 19 29.96 1015 10 16.0934 N/A
4:53 pm 16:53 Sunny 89 31.7 66 18.9 47 47 SE 12 19 29.94 1014 10 16.0934 N/A
5:53 pm 17:53 Sunny 87 30.6 68 20 53 53 E 9 15 29.93 1014 10 16.0934 N/A
6:53 pm 18:53 Mostly Sunny 86 30 69 20.6 57 57 E 8 13 29.92 1013 10 16.0934 N/A
7:53 pm 19:53 Sunny 81 27.2 71 21.7 72 72 E 6 9 29.91 1013 10 16.0934 N/A
8:53 pm 20:53 Clear 79 26.1 69 20.6 72 72 E 10 17 29.94 1014 10 16.0934 N/A
9:10 pm 21:10 Partly Cloudy with Nearby Thunderstorms 73 23 63 17 69 69 NE 30 48 29.88 1012 10 16.0934 N/A
9:25 pm 21:25 Windy with Storms Likely 73 22.8 62 16.7 69 69 NE 24 39 29.83 1010 10 16.0934 N/A
9:46 pm 21:46 Cloudy with Heavy Thunderstorms 64 18 64 18 100 100 W 20 31 30.06 1018 1.75 2.816345 N/A
9:51 pm 21:51 Cloudy with Heavy Thunderstorms 64 18 64 18 100 100 WNW 13 20 30.15 1021 1.25 2.011675 0.26 6.604
9:53 pm 21:53 Cloudy with Heavy Thunderstorms 64 17.8 64 17.8 100 100 W 23 37 30.19 1022 1 1.60934 0.33 8.382
9:55 pm 21:55 Cloudy with Heavy Thunderstorms 63 17.2 63 17.2 100 100 W 35 56 30.15 1021 0.5 0.80467 0.11 2.794
10:07 pm 22:07 Cloudy with Heavy Thunderstorms 63 17 N/A N/A N 31 50 30.09 1019 0.75 1.207005 0.72 18.288
10:09 pm 22:09 Cloudy with Heavy Thunderstorms 63 17 N/A N/A N 30 48 30.09 1019 1 1.60934 0.76 19.304
10:19 pm 22:19 Cloudy with Heavy Thunderstorms 63 17 N/A N/A NE 31 50 30.03 1017 2 3.21868 0.92 23.368
10:27 pm 22:27 Mostly Cloudy with Thunderstorms 63 17 N/A N/A NE 31 50 29.97 1015 5 8.0467 0.94 23.876
10:53 pm 22:53 Windy with Storms Likely 66 19 N/A N/A NE 23 37 30.06 1018 10 16.0934 0.96 24.384
11:03 pm 23:03 Cloudy with Light Rain 66 19 N/A N/A ENE 20 31 30 1016 10 16.0934 N/A
11:25 pm 23:25 Mostly Cloudy with Light Rain 64 18 N/A N/A SE 12 19 30 1016 10 16.0934 N/A
11:34 pm 23:34 Mostly Cloudy with Nearby Thunderstorms 64 18 N/A N/A E 12 19 30 1016 10 16.0934 N/A
11:53 pm 23:53 Mostly Clear 64 18 N/A N/A SSE 9 15 30.04 1017 10 16.0934 N/A

Powered by AerisWeather